Location: Valdosta
(30.8330°N, 83.2790°W)
Time: 16:15:47
(UTC-04:00)

Star 48 S/N 10029-3 - Visible Passes

Search period start: 22 September 2014 00:00
Search period end: 02 October 2014 00:00
Orbit: 227 x 327 km, 27.6° (Epoch: 20 September)

Date Brightness Start Highest point End Pass type
(mag) Time Alt. Az. Time Alt. Az. Time Alt. Az.
28 Sep 6.4 05:52:49 12° SE 05:52:49 12° SE 05:53:26 10° SE visible
29 Sep 6.3 05:51:42 15° SE 05:51:42 15° SE 05:52:29 10° ESE visible
30 Sep 6.3 05:50:25 16° ESE 05:50:25 16° ESE 05:51:10 10° ESE visible
01 Oct 6.4 05:49:01 15° ESE 05:49:01 15° ESE 05:49:39 10° ESE visible
